Regional Weather Roundup
Issued by NWS

Home | Current Version | Previous Version | Text Only | Print | Product List | Glossary Off
Versions: 1 2 3 4 5 6 7 8 9 10 11 12 13 14 15 16 17 18 19 20 21 22 23 24 25 26 27 28 29 30 31 32 33 34 35 36 37 38 39 40 41 42 43 44 45 46 47 48 49 50

175
ASUS45 KPSR 280510
RWRAZ

ARIZONA HOURLY REGIONAL WEATHER ROUNDUP
NATIONAL WEATHER SERVICE PHOENIX AZ
1000 PM MST THU JUL 27 2017

NOTE: FAIR INDICATES FEW OR NO CLOUDS BELOW 12,000 FEET WITH NO
SIGNIFICANT WEATHER AND/OR OBSTRUCTIONS TO VISIBILITY.

AZZ001>003-036-280600-
NORTHWEST ARIZONA

CITY           SKY/WX    TMP DP  RH WIND       PRES   REMARKS
KINGMAN        PTCLDY    81  58  45 SE8       29.99R
$$

AZZ004>008-015-016-018-280600-
NORTH CENTRAL ARIZONA

CITY           SKY/WX    TMP DP  RH WIND       PRES   REMARKS
GRAND CANYON   CLOUDY    69  56  62 NE3       30.30R THUNDER
WILLIAMS       MOCLDY    63  55  77 SE8       30.29R
PRESCOTT       CLOUDY    74  61  63 S7        30.15S
FLAGSTAFF      CLOUDY    57  56  96 CALM      30.32F
PAYSON         CLOUDY    68  63  83 CALM      30.23F
PAGE           MOCLDY    81  55  40 S13       30.06R
$$

AZZ009>014-017-280600-
NORTHEAST ARIZONA

CITY           SKY/WX    TMP DP  RH WIND       PRES   REMARKS
WINSLOW        CLOUDY    73  60  63 S14       30.16F
SAINT JOHNS    CLOUDY    66  60  81 S5        30.23F
WINDOW ROCK    CLOUDY    68  56  65 E6        30.33R
SHOW LOW         N/A    N/A N/A N/A MISG        N/A
$$

AZZ540-542>544-546-548-280600-
GREATER PHOENIX AREA

CITY           SKY/WX    TMP DP  RH WIND       PRES   REMARKS
PHOENIX        CLOUDY    95  62  33 E20       29.83R
BUCKEYE        CLOUDY    99  61  28 E20G26    29.80R
LUKE AFB       CLEAR     97  62  31 E10       29.82R
DEER VALLEY    CLOUDY    94  60  32 NE17G28   29.84R
SCOTTSDALE     CLOUDY    94  60  32 NE23G32   29.86R
MESA-GATEWAY   MOCLDY    91  63  38 SE5       29.87R
$$

AZZ539-553-280600-
SOUTHWEST MARICOPA COUNTY AND PINAL COUNTY

CITY           SKY/WX    TMP DP  RH WIND       PRES   REMARKS
CASA GRANDE    CLOUDY    93  61  34 E16       29.87R
GILA BEND      MOCLDY   101  55  21 SW8       29.76R
$$

AZZ503-504-507>509-280600-
SOUTHEAST ARIZONA

CITY           SKY/WX    TMP DP  RH WIND       PRES   REMARKS
TUCSON         LGT RAIN  76  68  76 SE15      30.03R
DAVIS-MONTHAN  CLOUDY    75  67  76 SE13      30.01R
NOGALES        LGT RAIN  69  66  90 CALM      30.15R
SIERRA VISTA   LGT RAIN  67  64  90 SE7       30.21R
DOUGLAS        LGT RAIN  70  65  84 CALM      30.19R
SAFFORD        CLOUDY    71  68  90 NE5       30.06F
$$

AZZ532-280600-
SOUTHWEST ARIZONA

CITY           SKY/WX    TMP DP  RH WIND       PRES   REMARKS
YUMA           PTCLDY    96  56  26 S10       29.73R
$$

CAZ041-043-047-048-061-525>527-560>570-280600-
SOUTHERN CALIFORNIA

CITY           SKY/WX    TMP DP  RH WIND       PRES   REMARKS
DOWNTOWN L.A.  CLEAR     70  61  73 VRB3      29.90R
L.A. AIRPORT   PTCLDY    68  64  87 W7        29.91R
SAN DIEGO      PTCLDY    72  65  78 NW3       29.94R
BURBANK        CLEAR     71  61  70 SE9       29.90R
ONTARIO        PTCLDY    76  57  51 W8        29.92R
RIVERSIDE      CLEAR     77  57  50 VRB3      29.92R
PALM SPRINGS   CLEAR     99  47  17 NW17G28   29.75R
EL CENTRO NAS  PTCLDY    97  46  17 W13       29.73R
IMPERIAL       CLEAR     95  56  26 SW7       29.71R
BLYTHE         MOCLDY   104  56  20 SW8       29.72R HX 103
NEEDLES        CLEAR    104  36   9 W13       29.74S
$$

NVZ020-UTZ003-280600-
SOUTHERN NEVADA-UTAH

CITY           SKY/WX    TMP DP  RH WIND       PRES   REMARKS
LAS VEGAS      PTCLDY    98  53  22 CALM      29.85R
SALT LAKE CITY CLEAR     78  54  43 SW6       30.06S
$$

NMZ009-TXZ055-280600-
NEW MEXICO-WEST TEXAS

CITY           SKY/WX    TMP DP  RH WIND       PRES   REMARKS
ALBUQUERQUE    LGT RAIN  70  62  76 SE12      30.23F
EL PASO        PTCLDY    71  65  81 E6        30.06R
$$


........................KEY........................
SKY/WX - SKY CONDITION/WEATHER
TMP    - TEMPERATURE IN FAHRENHEIT
DP     - DEW POINT IN FAHRENHEIT
RH     - RELATIVE HUMIDITY IN PERCENT
WIND   - DIRECTION AND SPEED IN MILES PER HOUR (MPH)
VRB    - VARIABLE WIND DIRECTION
PRES   - MEAN SEA LEVEL PRESSURE IN INCHES OF MERCURY
         F - FALLING PRESSURE   R - RISING PRESSURE
         S - STEADY PRESSURE
VSB    - VISIBILITY IN MILES
HX     - HEAT INDEX IN FAHRENHEIT
WCI    - WIND CHILL INDEX IN FAHRENHEIT
TC     - TEMPERATURE IN CELSIUS WHICH IS ALSO KNOWN AS
         TEMPERATURE IN CENTIGRADE
AFB    - AIR FORCE BASE
         LUKE AFB IS LUKE AIR FORCE BASE
         DAVIS-MONTHAN IS DAVIS-MONTHAN AIR FORCE BASE
NAS    - NAVAL AIR STATION
         EL CENTRO NAS IS EL CENTRO NAVAL AIR STATION
N/A    - NOT AVAILABLE





USA.gov is the U.S. government's official web portal to all federal, state and local government web resources and services.